Temperature
6 7 6 6 6 7 6 6 6 7 8 9 9 9 9 10 10 9 9 9 8 8 7 6 5 4 4 4 3 3 3 3 3 3 3 3 3 4 4 4 4 4 4 4
6 7 6 6 6 6 7 7 7 7 8 9 10 10 9 9 9 9 9 9 8 7 6 5 4 4 3 3 2 2 2 3 3 3 2 2 2 3 3 3 3 3 3 3
5 6 6 5 6 7 6 7 7 7 8 9 8 8 9 10 10 10 10 9 8 7 6 5 4 3 2 2 2 2 2 2 2 2 2 2 2 2 2 2 2 2 2 2
4 5 5 7 8 7 7 7 7 7 8 8 9 10 11 11 11 10 10 9 8 7 6 5 4 3 2 2 1 1 1 1 1 1 1 1 1 1 1 1 1 1 1 1
4 4 5 7 8 7 6 6 7 7 7 8 9 9 9 10 10 10 10 9 8 7 6 4 3 3 2 2 1 1 1 1 1 1 1 1 1 1 1 1 1 1 1 1
5 5 5 7 9 9 8 7 8 8 7 8 7 7 7 10 9 9 9 8 7 6 5 4 3 3 2 2 2 1 1 1 1 1 1 1 1 1 1 1 1 0 0 0
5 5 5 7 8 9 7 7 8 8 8 8 7 8 10 10 9 8 8 7 6 6 5 4 4 3 3 3 2 2 2 1 1 1 1 1 1 1 1 0 0 0 -0 -0
5 5 6 8 8 7 7 8 8 9 9 9 9 9 9 9 8 8 7 7 6 5 5 4 4 3 3 3 3 2 2 2 1 1 1 1 1 1 0 0 -0 -0 -0 -1
5 6 7 8 9 9 9 9 9 9 9 9 9 9 9 8 8 7 7 6 6 5 5 4 4 4 4 3 3 2 2 2 1 1 1 1 1 0 0 0 -0 -0 -1 -1
5 6 7 8 9 9 9 9 9 9 9 9 9 9 8 8 7 7 6 6 6 5 5 5 4 4 3 3 3 2 2 2 1 1 1 1 0 0 -0 -0 -0 -1 -1 -2
5 6 7 8 9 9 9 9 9 9 9 8 8 8 8 7 7 7 6 6 6 5 5 5 5 4 4 3 3 2 2 2 2 1 1 1 0 0 -0 -0 -1 -1 -1 -2
5 6 5 7 8 8 8 8 8 8 8 8 8 8 7 7 7 7 6 6 6 5 5 5 4 4 4 3 3 2 2 2 2 1 1 1 0 -0 -0 -1 -1 -1 -1 -2
6 6 6 7 7 7 8 8 8 8 8 7 7 7 7 7 6 6 6 6 6 6 5 5 4 4 4 3 3 3 2 2 2 1 1 1 0 -0 -0 -1 -1 -1 -2 -2
5 5 5 5 6 6 7 7 7 7 7 6 6 6 6 6 6 6 6 5 5 5 5 4 4 4 4 3 3 3 2 2 1 1 1 0 0 -0 -1 -1 -1 -2 -2 -2
4 4 4 5 5 5 5 6 6 6 6 6 5 5 5 5 5 5 5 5 4 4 4 4 4 4 3 3 3 2 2 2 1 1 0 0 -0 -1 -1 -1 -1 -2 -2 -2
3 3 4 4 4 4 4 5 5 5 5 4 4 4 4 4 4 4 4 4 4 4 4 4 4 3 3 2 2 2 2 1 1 0 -0 -0 -1 -1 -1 -1 -2 -2 -2 -3
2 2 2 3 3 3 3 4 4 3 3 3 3 3 3 3 3 3 3 3 3 3 3 3 3 2 2 2 2 1 1 1 0 -0 -1 -1 -1 -1 -1 -2 -2 -2 -2 -3
1 1 2 2 2 2 2 2 2 2 2 3 3 3 3 3 3 3 3 3 3 3 3 2 2 2 1 1 1 1 1 0 -0 -1 -1 -1 -2 -2 -2 -2 -2 -2 -3 -3
0 1 1 1 1 1 1 1 1 2 2 2 2 2 2 2 2 2 2 2 2 2 2 2 1 1 1 1 0 0 0 -0 -1 -1 -2 -2 -2 -2 -2 -2 -2 -3 -3 -3
-1 -1 -0 -0 -0 0 0 1 1 1 1 1 1 1 1 1 1 1 1 1 1 1 1 1 1 1 0 -0 -0 -0 -0 -1 -1 -2 -2 -2 -3 -3 -3 -3 -3 -3 -3 -3
-2 -2 -1 -1 -1 -1 -0 -0 0 0 1 1 1 1 1 1 1 1 1 1 0 0 0 0 0 0 -0 -0 -0 -0 -1 -1 -2 -2 -3 -3 -3 -3 -3 -3 -3 -3 -3 -4
-2 -2 -2 -2 -1 -1 -1 -1 -0 -0 -0 0 0 0 0 0 0 0 -0 -0 -0 -0 -0 -0 -0 -0 -1 -1 -1 -1 -1 -2 -2 -3 -3 -3 -3 -3 -3 -3 -3 -3 -4 -4
-3 -2 -2 -2 -2 -2 -1 -1 -1 -1 -1 -1 -0 -0 -0 -0 -0 -0 -1 -1 -1 -1 -1 -1 -1 -1 -1 -1 -1 -2 -2 -2 -3 -3 -3 -3 -3 -4 -4 -4 -4 -4 -4 -4
-3 -2 -2 -2 -2 -2 -2 -1 -1 -1 -1 -1 -1 -1 -1 -1 -1 -1 -1 -1 -1 -1 -1 -1 -1 -1 -2 -2 -2 -3 -3 -3 -3 -3 -4 -4 -4 -4 -4 -4 -4 -4 -4 -4
-2 -2 -2 -2 -2 -2 -2 -2 -2 -2 -2 -2 -2 -2 -2 -2 -2 -2 -2 -1 -1 -1 -1 -2 -2 -2 -2 -3 -3 -3 -3 -4 -4 -4 -4 -4 -4 -4 -4 -4 -4 -4 -4 -5
-2 -2 -2 -2 -2 -2 -2 -2 -2 -2 -2 -2 -2 -2 -2 -2 -2 -2 -2 -2 -2 -2 -2 -2 -2 -3 -3 -3 -3 -4 -4 -4 -4 -4 -4 -4 -4 -4 -4 -4 -5 -5 -5 -5
-2 -2 -2 -2 -2 -2 -2 -2 -2 -2 -2 -2 -2 -2 -2 -2 -2 -2 -2 -2 -2 -2 -2 -3 -3 -3 -3 -3 -4 -4 -4 -4 -4 -4 -4 -5 -4 -5 -5 -5 -5 -5 -5 -5
Wind_Speed
3 2 6 7 9 13 13 11 9 8 8 9 10 11 11 10 10 10 9 9 9 8 6 6 5 4 4 3 3 4 4 5 5 5 6 6 6 7 7 8 9 9 9 10
1 2 4 5 9 13 15 13 11 7 8 8 7 7 8 9 11 11 10 10 9 9 8 7 6 5 4 3 3 4 4 5 4 5 5 6 6 7 8 8 8 9 10 10
2 1 1 7 12 15 10 10 11 14 11 4 6 10 12 11 12 11 10 10 10 9 8 7 6 6 5 4 4 4 4 4 4 4 5 6 6 7 7 8 8 9 9 9
2 1 7 8 4 9 12 12 12 9 8 9 9 9 8 9 11 11 10 11 10 9 8 7 6 6 6 5 5 5 4 4 4 4 5 6 6 6 7 6 7 7 7 7
3 3 8 9 5 7 8 8 12 14 10 8 6 4 3 5 8 9 10 9 9 9 8 7 7 7 7 6 5 4 4 4 4 4 5 5 5 5 5 5 5 5 4 6
3 3 6 6 3 3 4 6 7 12 12 9 9 7 6 6 6 7 8 9 9 9 7 8 8 8 8 7 6 5 4 4 4 4 5 5 4 4 3 4 4 3 4 4
4 4 7 7 2 5 3 6 5 6 9 10 10 6 4 8 7 7 8 9 10 10 8 8 8 8 8 7 6 5 5 5 4 4 4 4 4 3 3 3 3 2 2 2
5 6 8 4 5 6 7 3 2 2 5 7 6 6 7 8 8 9 9 8 9 9 8 8 9 9 8 8 6 6 6 5 5 4 4 4 4 3 3 3 2 1 0 1
8 9 6 4 7 5 3 2 1 3 4 7 6 5 7 7 8 9 9 9 9 8 8 8 9 9 10 8 7 7 7 6 5 5 4 4 4 4 3 2 2 2 2 1
5 7 6 6 5 3 4 4 3 4 5 6 5 5 6 6 8 9 9 10 9 9 10 10 9 9 9 9 9 8 7 7 6 5 4 4 4 4 3 3 3 3 2 2
6 6 4 5 4 4 3 3 4 4 4 5 6 5 6 6 8 9 9 10 10 11 11 11 10 10 9 10 10 9 8 7 6 6 6 5 4 4 4 4 5 4 3 3
6 5 4 6 5 3 4 4 5 5 3 3 4 5 5 6 6 7 9 10 10 11 11 11 11 10 10 11 11 10 8 7 6 5 5 5 4 2 4 4 4 5 6 5
5 3 3 4 3 1 3 3 3 4 4 2 1 2 4 4 5 6 8 10 12 13 12 11 11 11 11 11 12 11 9 8 6 6 6 6 5 5 3 3 5 5 5 5
4 2 2 3 3 1 2 3 4 3 2 1 1 1 2 2 3 5 7 9 9 10 10 11 11 12 11 12 12 12 10 10 9 7 7 6 6 5 5 4 3 3 4 6
6 4 4 3 1 1 1 3 4 2 2 2 1 1 1 3 4 5 5 5 6 8 9 10 11 11 10 12 12 12 10 8 7 6 6 6 6 5 5 5 4 4 3 4
5 3 0 2 2 2 2 2 2 1 1 2 2 2 3 4 4 4 4 4 6 8 9 10 11 9 10 11 11 10 9 12 10 7 6 6 5 5 5 5 5 4 4 4
3 2 1 2 2 2 2 2 2 1 1 2 3 4 4 3 3 4 4 4 5 6 7 8 8 7 9 11 11 8 7 9 13 8 7 7 6 6 6 5 5 5 5 5
2 1 1 1 2 2 2 2 2 2 2 3 4 3 3 3 4 5 5 4 3 3 4 5 5 6 8 9 9 7 8 7 8 8 7 6 6 6 5 6 6 6 5 5
4 3 3 3 2 2 2 2 2 2 3 3 3 3 3 3 3 4 3 2 3 4 4 4 6 6 7 9 9 7 7 8 7 7 6 8 7 6 6 6 6 6 5 5
5 4 4 4 4 3 3 3 3 3 4 4 3 3 4 4 4 4 2 2 3 3 3 3 4 4 6 7 10 6 8 8 8 7 7 6 7 6 6 6 6 6 6 6
5 5 4 4 4 4 4 4 3 4 4 4 4 4 4 5 4 3 2 2 3 3 2 3 3 3 4 6 9 6 7 7 8 7 7 7 7 7 7 7 7 6 6 6
4 4 4 4 3 3 4 4 4 3 4 4 4 4 4 5 5 4 2 2 4 5 2 2 2 4 6 7 5 6 7 7 7 7 7 7 7 7 7 7 7 6 6 5
3 3 3 3 2 2 2 3 4 3 3 4 4 4 4 4 3 3 4 4 4 6 3 2 3 6 7 6 5 6 7 7 7 7 7 7 7 7 7 7 6 6 6 6
2 2 2 2 2 1 2 3 3 3 3 3 3 4 4 4 3 2 3 7 8 7 3 4 5 6 6 4 5 5 6 7 7 6 6 6 6 6 6 6 6 6 6 6
3 3 3 3 2 2 3 3 3 3 3 3 4 4 3 2 3 4 5 5 8 7 3 4 6 6 3 3 4 5 6 6 6 6 6 6 6 6 6 6 6 6 6 6
4 4 4 4 4 3 2 2 2 2 3 3 4 3 3 3 4 4 4 5 6 6 4 3 3 3 2 2 4 5 5 6 7 7 6 6 7 6 6 6 7 6 6 6
5 5 4 4 4 3 3 3 3 3 3 3 4 4 4 4 4 4 5 4 4 4 3 3 3 2 2 2 3 4 4 5 5 5 5 6 6 6 6 7 6 6 5 5
Wind_Direction
229 187 164 194 199 197 205 209 204 222 219 226 208 190 182 175 168 166 170 172 170 165 161 152 141 129 116 98 76 74 72 64 55 49 49 50 49 47 48 49 50 46 47 44
296 230 202 233 223 212 217 219 225 240 249 242 214 184 177 176 175 181 186 183 174 167 164 162 156 146 129 115 99 90 83 72 64 61 59 57 57 56 56 54 53 53 51 48
257 284 352 261 225 213 211 211 204 225 232 222 185 187 189 189 188 192 190 181 175 172 167 164 160 149 141 131 115 102 93 84 76 74 70 63 65 63 59 55 55 54 50 48
164 106 243 246 232 203 216 227 211 218 213 204 205 201 195 189 190 194 184 175 171 163 159 157 151 142 135 129 119 110 103 96 92 89 84 78 73 68 63 61 60 58 52 44
169 234 276 285 251 185 196 248 221 218 212 205 195 151 235 213 193 188 176 164 160 158 155 154 152 146 138 131 127 126 123 117 107 101 99 93 87 79 72 74 69 59 51 45
190 230 252 264 286 171 139 266 244 210 203 181 155 182 227 195 163 150 143 144 148 148 147 154 156 149 145 146 150 152 143 130 120 117 117 113 109 100 91 90 88 78 58 39
205 245 267 260 244 117 175 257 299 204 187 172 182 196 177 146 141 142 140 145 149 153 159 165 159 154 155 159 168 159 144 137 133 133 135 134 129 126 125 120 112 96 68 9
186 220 255 253 150 186 226 279 355 123 154 159 157 131 136 147 148 150 149 151 157 162 168 167 163 162 167 176 171 157 151 151 152 157 160 152 149 149 150 152 149 162 156 327
200 220 245 223 210 229 200 188 165 111 119 128 133 152 159 164 165 167 166 168 168 170 171 174 175 174 180 183 169 162 162 168 168 168 170 166 170 174 176 180 184 202 205 230
247 261 261 255 242 241 204 189 160 136 134 138 149 166 172 174 178 180 180 180 176 175 183 190 189 188 187 177 172 169 176 179 176 172 172 172 178 178 176 183 190 200 208 222
252 272 299 287 246 228 212 168 143 132 147 157 156 174 186 189 191 192 190 187 185 191 197 199 192 194 189 178 175 179 184 185 183 180 172 173 178 188 185 201 195 194 204 207
237 238 229 258 267 245 201 190 174 157 146 143 166 187 192 202 201 196 195 190 193 199 202 200 195 198 193 184 181 181 187 189 185 179 178 176 176 193 225 212 212 202 199 202
254 283 265 274 293 269 193 179 160 154 159 165 174 190 198 210 209 204 201 197 202 205 204 200 198 201 196 189 186 189 191 189 185 183 182 183 186 190 211 244 243 238 238 241
299 308 289 271 262 280 150 130 114 99 92 117 172 201 205 218 218 216 217 213 207 203 202 199 200 205 195 188 189 193 192 193 190 189 187 188 193 198 200 208 230 258 261 258
303 283 246 250 227 161 118 113 106 90 54 36 31 357 268 250 247 243 238 221 204 203 205 202 207 207 188 186 190 192 191 191 189 185 186 189 190 192 199 207 216 231 248 269
309 329 294 198 191 166 134 125 127 113 38 9 353 323 298 278 270 266 253 215 203 213 211 207 213 203 185 187 188 191 193 192 184 183 185 186 188 193 201 207 216 226 235 241
289 286 257 223 205 186 154 132 123 99 13 340 322 317 312 305 295 286 276 250 230 228 216 211 211 190 184 187 187 190 186 189 187 185 189 190 192 200 204 207 216 227 236 241
296 294 279 221 182 156 121 88 72 49 359 330 326 323 312 297 285 283 281 275 258 254 239 221 202 185 188 188 187 184 183 184 186 189 189 191 197 201 204 211 219 230 239 250
13 29 36 48 67 101 88 54 30 21 3 351 343 329 316 308 301 297 294 273 251 260 261 231 203 189 191 192 183 181 183 186 188 188 187 200 204 202 209 215 223 228 235 240
17 24 33 42 45 52 51 32 25 23 10 1 359 357 348 335 327 321 311 276 263 267 260 220 200 195 194 193 188 185 187 189 190 188 189 196 202 208 214 220 225 231 235 239
14 21 30 38 43 39 32 23 20 17 11 15 17 2 344 337 339 338 331 309 313 309 281 234 205 198 192 195 195 189 189 189 191 193 196 202 208 213 218 223 228 232 235 240
4 11 17 21 27 25 17 17 16 14 13 13 9 0 353 349 346 340 325 309 314 315 303 246 223 214 208 202 192 191 192 194 196 196 199 204 209 215 220 223 227 233 235 238
347 351 355 357 355 352 1 7 3 3 2 359 356 351 344 333 330 333 326 327 322 318 315 265 255 240 224 204 191 194 196 198 199 202 206 209 213 216 219 223 227 231 235 240
291 303 314 325 332 341 340 337 341 342 342 341 343 342 338 335 332 323 302 315 323 320 305 285 277 259 236 196 190 195 199 202 205 209 210 211 213 215 219 223 229 233 236 242
262 268 271 275 274 273 283 304 320 334 341 337 333 335 336 324 307 308 312 315 323 323 309 297 289 275 244 192 196 201 204 208 211 209 211 212 215 218 222 225 228 234 238 242
246 252 254 251 250 255 261 275 290 302 313 320 319 318 323 322 317 316 316 318 321 325 320 296 294 281 236 204 208 211 212 220 228 222 213 214 218 221 226 228 232 234 239 243
246 247 251 256 250 239 240 247 261 277 286 292 298 304 314 319 321 323 324 324 325 323 316 308 302 290 253 224 220 221 219 218 220 219 216 217 219 223 227 230 233 236 239 244
Height
1479 1477 1481 1481 1480 1481 1484 1484 1487 1480 1477 1471 1469 1469 1471 1473 1477 1479 1481 1483 1484 1485 1485 1485 1485 1484 1483 1483 1482 1482 1481 1481 1481 1480 1480 1479 1479 1478 1478 1477 1476 1475 1474 1472
1480 1477 1478 1478 1476 1476 1476 1476 1477 1476 1473 1466 1465 1467 1470 1472 1474 1476 1478 1479 1481 1482 1482 1482 1482 1481 1481 1481 1480 1480 1479 1479 1479 1479 1478 1478 1478 1477 1476 1476 1475 1474 1473 1472
1486 1479 1478 1479 1468 1468 1469 1467 1469 1469 1465 1463 1464 1465 1466 1468 1471 1472 1474 1476 1477 1478 1479 1479 1480 1479 1479 1479 1479 1478 1478 1478 1478 1478 1477 1477 1477 1477 1477 1476 1475 1474 1473 1472
1487 1483 1486 1465 1457 1458 1459 1458 1459 1458 1458 1459 1459 1461 1463 1465 1467 1469 1471 1473 1474 1475 1476 1477 1477 1478 1478 1478 1478 1477 1477 1477 1477 1477 1477 1477 1478 1477 1477 1477 1476 1475 1474 1473
1485 1485 1476 1462 1454 1455 1458 1456 1451 1452 1453 1455 1457 1460 1461 1462 1464 1466 1468 1470 1471 1473 1474 1475 1475 1476 1476 1477 1477 1477 1477 1477 1477 1478 1478 1478 1478 1478 1478 1478 1477 1476 1475 1474
1478 1479 1475 1458 1451 1449 1454 1454 1444 1445 1448 1451 1455 1460 1459 1459 1461 1463 1465 1467 1469 1470 1472 1473 1474 1475 1475 1476 1476 1476 1477 1477 1478 1478 1479 1479 1479 1479 1479 1478 1478 1477 1476 1475
1477 1474 1466 1454 1450 1451 1459 1452 1443 1441 1443 1447 1450 1453 1455 1456 1458 1460 1463 1465 1467 1468 1470 1471 1473 1474 1475 1475 1476 1476 1477 1477 1478 1479 1479 1479 1479 1479 1479 1478 1478 1477 1476 1475
1472 1472 1467 1449 1450 1452 1450 1445 1442 1441 1442 1445 1448 1451 1452 1454 1456 1458 1460 1463 1465 1466 1468 1470 1471 1473 1474 1475 1476 1476 1477 1477 1478 1479 1479 1479 1479 1479 1479 1478 1478 1477 1476 1474
1462 1459 1450 1447 1447 1446 1445 1445 1444 1443 1444 1446 1448 1450 1452 1454 1455 1457 1459 1461 1463 1465 1467 1468 1470 1471 1473 1474 1474 1475 1476 1477 1478 1478 1479 1479 1479 1479 1478 1477 1477 1476 1474 1473
1455 1450 1447 1445 1445 1445 1445 1445 1445 1445 1446 1447 1448 1450 1451 1453 1454 1456 1457 1459 1461 1463 1464 1466 1468 1469 1471 1472 1473 1474 1475 1476 1476 1477 1477 1478 1478 1477 1477 1476 1475 1474 1473 1471
1451 1447 1445 1443 1443 1443 1444 1444 1445 1445 1446 1447 1448 1449 1451 1452 1453 1454 1455 1457 1458 1460 1461 1463 1465 1467 1468 1470 1471 1472 1473 1474 1474 1475 1476 1476 1476 1476 1475 1474 1473 1472 1471 1469
1449 1445 1445 1443 1442 1442 1443 1443 1443 1444 1445 1446 1447 1448 1449 1449 1450 1451 1453 1454 1455 1456 1458 1460 1461 1463 1465 1466 1468 1469 1470 1471 1472 1473 1473 1474 1474 1474 1473 1472 1471 1470 1468 1466
1445 1443 1443 1441 1440 1440 1441 1441 1442 1442 1443 1444 1445 1445 1446 1447 1447 1448 1449 1450 1451 1452 1454 1455 1457 1459 1461 1462 1464 1465 1466 1468 1469 1469 1470 1471 1471 1471 1470 1470 1468 1467 1465 1463
1442 1441 1440 1439 1439 1439 1439 1439 1440 1440 1441 1441 1442 1442 1443 1443 1443 1444 1444 1445 1446 1448 1449 1450 1452 1453 1456 1458 1459 1461 1462 1464 1465 1466 1467 1467 1468 1468 1467 1466 1465 1464 1462 1460
1439 1438 1437 1436 1436 1436 1436 1437 1437 1438 1438 1438 1439 1439 1439 1439 1439 1439 1440 1441 1441 1442 1443 1445 1446 1448 1450 1452 1454 1455 1457 1459 1460 1462 1463 1463 1464 1464 1463 1463 1461 1460 1459 1457
1436 1434 1434 1434 1433 1433 1434 1434 1435 1435 1435 1435 1435 1435 1435 1435 1435 1435 1435 1436 1436 1437 1438 1439 1440 1442 1444 1446 1448 1449 1451 1453 1455 1457 1458 1459 1459 1459 1459 1459 1458 1456 1455 1453
1434 1432 1432 1432 1431 1432 1432 1432 1432 1432 1433 1433 1432 1432 1432 1431 1431 1431 1431 1431 1431 1432 1433 1434 1435 1436 1438 1439 1441 1443 1445 1447 1449 1451 1452 1453 1454 1455 1455 1454 1453 1452 1451 1449
1433 1432 1431 1430 1430 1430 1430 1430 1430 1430 1430 1430 1430 1429 1429 1428 1427 1427 1427 1427 1427 1427 1428 1429 1430 1430 1431 1433 1435 1436 1438 1440 1442 1444 1446 1448 1449 1449 1450 1449 1449 1448 1446 1445
1432 1430 1429 1429 1429 1429 1428 1428 1428 1428 1428 1427 1427 1426 1426 1425 1424 1423 1423 1423 1422 1423 1424 1424 1424 1425 1426 1427 1428 1430 1432 1434 1436 1438 1440 1441 1443 1444 1444 1444 1444 1443 1442 1440
1431 1430 1429 1428 1428 1428 1427 1427 1427 1426 1426 1425 1425 1424 1423 1422 1421 1421 1420 1419 1419 1419 1419 1419 1419 1420 1420 1421 1422 1424 1425 1427 1429 1431 1433 1435 1437 1438 1439 1439 1438 1438 1437 1435
1432 1430 1429 1429 1428 1427 1427 1426 1426 1425 1424 1424 1423 1422 1421 1420 1419 1418 1417 1417 1416 1416 1415 1415 1415 1415 1415 1416 1417 1418 1419 1421 1423 1425 1427 1429 1431 1432 1433 1433 1433 1432 1431 1430
1433 1431 1430 1429 1429 1428 1427 1426 1425 1424 1423 1423 1422 1420 1419 1418 1417 1416 1415 1414 1413 1413 1412 1411 1411 1411 1411 1411 1412 1413 1414 1416 1418 1420 1422 1423 1425 1426 1427 1428 1428 1427 1426 1425
1434 1432 1431 1430 1429 1428 1427 1426 1425 1424 1423 1421 1420 1419 1418 1416 1415 1414 1413 1412 1410 1409 1408 1408 1407 1407 1407 1407 1407 1408 1410 1411 1413 1415 1417 1418 1420 1421 1422 1422 1422 1422 1421 1420
1434 1433 1432 1431 1430 1428 1427 1426 1424 1423 1422 1420 1419 1418 1416 1415 1413 1412 1410 1409 1408 1406 1405 1404 1404 1403 1403 1403 1403 1404 1405 1407 1409 1411 1412 1414 1415 1416 1417 1417 1417 1417 1416 1415
1434 1432 1431 1430 1429 1428 1426 1425 1424 1422 1421 1419 1418 1416 1415 1413 1412 1410 1408 1407 1405 1404 1403 1401 1400 1400 1399 1399 1400 1401 1402 1403 1405 1407 1408 1409 1410 1411 1412 1412 1412 1411 1410 1409
1431 1430 1429 1428 1427 1426 1425 1424 1422 1421 1420 1418 1417 1415 1413 1411 1410 1408 1406 1404 1403 1401 1400 1399 1398 1397 1396 1397 1397 1398 1399 1400 1401 1402 1403 1405 1406 1406 1406 1407 1407 1406 1405 1404
1428 1427 1426 1425 1425 1424 1423 1422 1420 1419 1418 1416 1415 1413 1411 1409 1408 1406 1404 1402 1400 1399 1397 1396 1395 1394 1394 1394 1394 1395 1395 1396 1397 1398 1399 1400 1400 1401 1401 1401 1401 1401 1400 1398